Weather History for KPLN - April, 2013

Change the Weather History Date:

Friday, April 12, 2013

  Actual Average Record
Temperature  
Mean Temperature 30 °F -  
Max Temperature 33 °F 49 °F 80 °F (1968)
Min Temperature 26 °F 26 °F 12 °F (1950)
Degree Days  
Heating Degree Days 36    
Moisture  
Dew Point 26 °F    
Average Humidity 86    
Maximum Humidity 93    
Minimum Humidity 74    
Precipitation  
Precipitation 0.18 in - - ()
Sea Level Pressure  
Sea Level Pressure 29.69 in    
Wind  
Wind Speed 15 mph (ENE)    
Max Wind Speed 25 mph    
Max Gust Speed 33 mph    
Visibility 2 miles    
Events Fog , Snow    
Averages and records for this station are not official NWS values.
T = Trace of Precipitation, MM = Missing Value Source: NWS Daily Summary

Daily Weather History Graph

Daily Weather History Graph

Search for Another Location

Airport or City:

Trip Planner

Search our weather history database for the weather conditions in past years. The results will help you decide how hot, cold, wet, or windy it might be!

Date:

Astronomy

Apr. 12, 2013 Rise Set
Actual Time 6:58 AM EDT 8:22 PM EDT
Civil Twilight 6:27 AM EDT 8:52 PM EDT
Nautical Twilight 5:50 AM EDT 9:30 PM EDT
Astronomical Twilight 5:11 AM EDT 10:10 PM EDT
Moon 8:01 AM EDT (4/12) 10:59 PM EDT (4/12)
Length of Visible Light 14h 25m
Length of Day
13h 23m
Waxing Crescent, 5% of the Moon is Illuminated
Apr 12
Waxing Crescent
Apr 18
First Quarter
Apr 25
Full
May 2
Last Quarter
May 9
New

Hourly Weather History & Observations

Time (EDT) Temp. Windchill Dew Point Humidity Pressure Visibility Wind Dir Wind Speed Gust Speed Precip Events Conditions
12:07 AM 28.4 °F 15.1 °F 24.8 °F 86% 29.87 in 2.0 mi East 20.7 mph 31.1 mph 0.00 in Snow Light Snow
12:18 AM 28.4 °F 16.2 °F 23.0 °F 80% 29.86 in 3.0 mi East 17.3 mph 28.8 mph 0.01 in Snow Light Snow
12:54 AM 28.9 °F 16.1 °F 23.0 °F 78% 29.88 in 9.0 mi ENE 19.6 mph 28.8 mph 0.01 in Snow Light Snow
1:34 AM 28.4 °F 16.2 °F 23.0 °F 80% 29.83 in 2.0 mi East 17.3 mph 33.4 mph 0.00 in Snow Light Snow
1:54 AM 28.0 °F 14.6 °F 23.0 °F 81% 29.85 in 2.0 mi East 20.7 mph 32.2 mph 0.01 in Snow Light Snow
2:22 AM 28.4 °F 14.7 °F 21.2 °F 74% 29.79 in 4.0 mi East 21.9 mph 29.9 mph 0.00 in Snow Light Snow
2:54 AM 28.0 °F 13.3 °F 21.9 °F 78% 29.80 in 3.0 mi East 25.3 mph 33.4 mph 0.01 in Snow Light Snow
3:28 AM 28.4 °F 15.1 °F 23.0 °F 80% 29.76 in 2.5 mi East 20.7 mph 33.4 mph 0.00 in Snow Light Snow
3:54 AM 28.0 °F 15.3 °F 23.0 °F 81% 29.78 in 3.0 mi East 18.4 mph 28.8 mph 0.02 in Snow Light Snow
4:17 AM 26.6 °F 13.4 °F 23.0 °F 86% 29.75 in 2.0 mi East 18.4 mph 26.5 mph 0.01 in Snow Light Snow
4:24 AM 26.6 °F 12.7 °F 23.0 °F 86% 29.74 in 1.2 mi East 20.7 mph 27.6 mph 0.02 in Snow Light Snow
4:38 AM 26.6 °F 13.8 °F 24.8 °F 93% 29.73 in 0.8 mi East 17.3 mph 27.6 mph 0.03 in Snow Light Snow
4:54 AM 27.0 °F 13.5 °F 24.1 °F 89% 29.75 in 0.8 mi East 19.6 mph 27.6 mph 0.04 in Snow Light Snow
5:08 AM 26.6 °F 13.4 °F 24.8 °F 93% 29.73 in 0.5 mi East 18.4 mph 25.3 mph 0.01 in Fog , Snow Snow
5:42 AM 28.4 °F 15.4 °F 24.8 °F 86% 29.70 in 1.2 mi East 19.6 mph 25.3 mph 0.04 in Snow Light Snow
5:54 AM 28.0 °F 16.5 °F 24.1 °F 85% 29.73 in 1.2 mi East 15.0 mph 23.0 mph 0.04 in Snow Light Snow
6:00 AM 28.4 °F 17.5 °F 24.8 °F 86% 29.70 in 1.2 mi East 13.8 mph 26.5 mph 0.00 in Snow Light Snow
6:07 AM 28.4 °F 17.5 °F 24.8 °F 86% 29.69 in 1.5 mi East 13.8 mph 21.9 mph 0.01 in Snow Light Snow
6:20 AM 28.4 °F 17.5 °F 24.8 °F 86% 29.69 in 1.5 mi East 13.8 mph 25.3 mph 0.01 in Snow Light Snow
6:33 AM 28.4 °F 16.2 °F 24.8 °F 86% 29.68 in 2.0 mi East 17.3 mph 24.2 mph 0.01 in Snow Light Snow
6:54 AM 28.0 °F 16.1 °F 24.1 °F 85% 29.71 in 2.5 mi ENE 16.1 mph - 0.01 in Snow Light Snow
7:22 AM 28.4 °F 16.6 °F 24.8 °F 86% 29.68 in 1.5 mi ENE 16.1 mph 23.0 mph 0.00 in Snow Light Snow
7:40 AM 28.4 °F 17.5 °F 24.8 °F 86% 29.67 in 1.5 mi ENE 13.8 mph 24.2 mph 0.00 in Snow Light Snow
7:54 AM 28.0 °F 16.1 °F 24.1 °F 85% 29.70 in 1.2 mi East 16.1 mph 25.3 mph 0.00 in Snow Light Snow
8:06 AM 28.4 °F 18.0 °F 24.8 °F 86% 29.67 in 3.0 mi ENE 12.7 mph - 0.00 in Snow Light Snow
8:29 AM 28.4 °F 17.5 °F 24.8 °F 86% 29.67 in 3.0 mi ENE 13.8 mph 19.6 mph 0.01 in Snow Light Snow
8:38 AM 28.4 °F 17.0 °F 24.8 °F 86% 29.66 in 1.8 mi ENE 15.0 mph 24.2 mph 0.01 in Snow Light Snow
8:54 AM 28.9 °F 17.7 °F 25.0 °F 85% 29.69 in 1.0 mi ENE 15.0 mph - 0.01 in Snow Light Snow
9:05 AM 28.4 °F 17.5 °F 24.8 °F 86% 29.65 in 0.8 mi ENE 13.8 mph 23.0 mph 0.00 in Snow Light Snow
9:08 AM 28.4 °F 17.5 °F 24.8 °F 86% 29.65 in 1.0 mi ENE 13.8 mph 23.0 mph 0.00 in Snow Light Snow
9:37 AM 28.4 °F 17.5 °F 24.8 °F 86% 29.65 in 1.2 mi East 13.8 mph 20.7 mph 0.01 in Snow Light Snow
9:54 AM 28.9 °F 18.6 °F 25.0 °F 85% 29.67 in 2.0 mi East 12.7 mph - 0.01 in Snow Light Snow
10:11 AM 28.4 °F 17.5 °F 24.8 °F 86% 29.64 in 3.0 mi East 13.8 mph 20.7 mph 0.00 in   Overcast
10:54 AM 28.9 °F 19.2 °F 26.1 °F 89% 29.67 in 3.0 mi ENE 11.5 mph - 0.00 in   Overcast
11:23 AM 30.2 °F 20.8 °F 26.6 °F 86% 29.64 in 2.5 mi ENE 11.5 mph 19.6 mph N/A   Overcast
11:54 AM 30.0 °F 21.7 °F 26.1 °F 85% 29.68 in 2.5 mi ENE 9.2 mph 18.4 mph N/A   Overcast
12:32 PM 30.2 °F 20.2 °F 26.6 °F 86% 29.65 in 3.0 mi ENE 12.7 mph 18.4 mph N/A   Overcast
12:54 PM 30.9 °F 21.2 °F 27.0 °F 85% 29.67 in 2.5 mi ENE 12.7 mph - 0.00 in Snow Light Snow
1:04 PM 32.0 °F 22.1 °F 28.4 °F 87% 29.63 in 3.0 mi ENE 13.8 mph 19.6 mph 0.00 in   Overcast
1:17 PM 32.0 °F 22.1 °F 28.4 °F 87% 29.63 in 3.0 mi ENE 13.8 mph 20.7 mph 0.00 in   Overcast
1:39 PM 32.0 °F 21.6 °F 28.4 °F 87% 29.62 in 2.0 mi East 15.0 mph - 0.00 in Snow Light Snow
1:54 PM 33.1 °F 23.9 °F 28.0 °F 82% 29.65 in 2.0 mi ENE 12.7 mph 20.7 mph 0.00 in Snow Light Snow
2:15 PM 33.8 °F 24.3 °F 28.4 °F 81% 29.63 in 1.5 mi ENE 13.8 mph 23.0 mph 0.00 in Snow Light Snow
2:41 PM 33.8 °F 25.3 °F 28.4 °F 81% 29.63 in 1.5 mi ENE 11.5 mph - 0.00 in Snow Light Snow
2:45 PM 33.8 °F 25.8 °F 28.4 °F 81% 29.63 in 2.0 mi ENE 10.4 mph 19.6 mph 0.00 in Snow Light Snow
2:52 PM 33.8 °F 24.3 °F 28.4 °F 81% 29.63 in 1.8 mi ENE 13.8 mph 19.6 mph 0.00 in Snow Light Snow
2:54 PM 33.1 °F 23.9 °F 28.0 °F 82% 29.66 in 1.8 mi ENE 12.7 mph - 0.00 in Snow Light Snow
3:08 PM 33.8 °F 25.8 °F 28.4 °F 81% 29.63 in 1.2 mi ENE 10.4 mph - 0.00 in Snow Light Snow
3:26 PM 33.8 °F 24.3 °F 28.4 °F 81% 29.64 in 1.8 mi ENE 13.8 mph - 0.00 in Snow Light Snow
3:43 PM 32.0 °F 22.5 °F 28.4 °F 87% 29.64 in 1.8 mi East 12.7 mph - 0.00 in Snow Light Snow
3:51 PM 32.0 °F 23.0 °F 28.4 °F 87% 29.64 in 2.0 mi East 11.5 mph - 0.00 in Snow Light Snow
3:54 PM 32.0 °F 22.1 °F 28.0 °F 85% 29.67 in 3.0 mi ENE 13.8 mph 19.6 mph 0.00 in Snow Light Snow
4:06 PM 32.0 °F 23.6 °F 26.6 °F 80% 29.64 in 3.0 mi ENE 10.4 mph - 0.00 in Snow Light Snow
4:16 PM 32.0 °F 24.2 °F 28.4 °F 87% 29.64 in 2.5 mi ENE 9.2 mph - 0.00 in Snow Light Snow
4:23 PM 32.0 °F 24.8 °F 28.4 °F 87% 29.64 in 3.0 mi ENE 8.1 mph - 0.00 in Snow Light Snow
4:30 PM 32.0 °F 24.2 °F 28.4 °F 87% 29.64 in 2.5 mi ENE 9.2 mph - 0.00 in   Overcast
4:44 PM 32.0 °F 24.2 °F 28.4 °F 87% 29.64 in 1.2 mi ENE 9.2 mph - 0.00 in Snow Light Snow
4:51 PM 32.0 °F 23.0 °F 28.4 °F 87% 29.64 in 1.0 mi ENE 11.5 mph - 0.00 in Snow Light Snow
4:52 PM 32.0 °F 23.0 °F 28.0 °F 85% 29.67 in 1.0 mi ENE 11.5 mph - 0.00 in Snow Light Snow
5:05 PM 32.0 °F 24.2 °F 28.4 °F 87% 29.64 in 1.2 mi ENE 9.2 mph - 0.00 in Snow Light Snow
5:18 PM 32.0 °F 23.6 °F 28.4 °F 87% 29.64 in 3.0 mi ENE 10.4 mph - 0.00 in Snow Light Snow
5:54 PM 32.0 °F 23.0 °F 27.0 °F 82% 29.68 in 9.0 mi East 11.5 mph - 0.00 in   Overcast
6:54 PM 32.0 °F 24.2 °F 28.0 °F 85% 29.70 in 2.5 mi ENE 9.2 mph - 0.00 in Snow Light Snow
7:01 PM 32.0 °F 24.2 °F 26.6 °F 80% 29.67 in 2.0 mi East 9.2 mph - 0.00 in Snow Light Snow
7:18 PM 32.0 °F 24.8 °F 26.6 °F 80% 29.67 in 3.0 mi East 8.1 mph - 0.00 in   Haze
7:38 PM 30.2 °F 21.9 °F 26.6 °F 86% 29.67 in 4.0 mi East 9.2 mph - 0.00 in   Overcast
7:48 PM 30.2 °F 24.3 °F 28.4 °F 93% 29.67 in 3.0 mi ENE 5.8 mph - 0.00 in   Overcast
7:49 PM 30.9 °F 25.2 °F 28.0 °F 89% 29.70 in 3.0 mi ENE 5.8 mph - 0.00 in   Overcast
8:38 PM 30.2 °F 24.3 °F 28.4 °F 93% 29.67 in 5.0 mi ENE 5.8 mph - 0.00 in   Overcast
8:54 PM 30.9 °F 26.2 °F 28.0 °F 89% 29.70 in 3.0 mi ENE 4.6 mph - 0.01 in Snow Light Snow
8:59 PM 30.2 °F 25.4 °F 28.4 °F 93% 29.67 in 2.5 mi ENE 4.6 mph - 0.00 in Snow Light Snow
9:35 PM 30.2 °F 25.4 °F 28.4 °F 93% 29.68 in 3.0 mi ENE 4.6 mph - 0.00 in Snow Light Snow
9:54 PM 30.9 °F 26.2 °F 28.0 °F 89% 29.71 in 8.0 mi ENE 4.6 mph - 0.00 in   Overcast
10:54 PM 30.9 °F 27.5 °F 28.0 °F 89% 29.72 in 2.0 mi ENE 3.5 mph - 0.01 in Snow Light Snow
11:02 PM 30.2 °F 25.4 °F 28.4 °F 93% 29.68 in 2.5 mi ENE 4.6 mph - 0.00 in Snow Light Snow
11:12 PM 30.2 °F 25.4 °F 28.4 °F 93% 29.68 in 4.0 mi ENE 4.6 mph - 0.00 in   Overcast
11:28 PM 30.2 °F 25.4 °F 28.4 °F 93% 29.68 in 2.0 mi ENE 4.6 mph - 0.00 in Snow Light Snow
11:54 PM 30.9 °F 27.5 °F 28.0 °F 89% 29.70 in 2.0 mi NE 3.5 mph - 0.00 in Snow Light Snow